TimeCDT,TemperatureF,Dew PointF,Humidity,Sea Level PressureIn,VisibilityMPH,Wind Direction,Wind SpeedMPH,Gust SpeedMPH,PrecipitationIn,Events,Conditions,WindDirDegrees,DateUTC
12:53 AM,75.0,69.1,82,30.03,10.0,Calm,Calm,-,N/A,,Clear,0,2013-07-29 05:53:00
1:53 AM,75.0,69.1,82,30.03,10.0,Calm,Calm,-,N/A,,Clear,0,2013-07-29 06:53:00
2:53 AM,73.9,69.1,85,30.03,10.0,Calm,Calm,-,N/A,,Mostly Cloudy,0,2013-07-29 07:53:00
3:53 AM,72.0,68.0,87,30.05,10.0,Calm,Calm,-,N/A,,Clear,0,2013-07-29 08:53:00
4:53 AM,72.0,64.9,78,30.05,10.0,Calm,Calm,-,N/A,,Clear,0,2013-07-29 09:53:00
5:53 AM,71.1,64.9,81,30.06,10.0,Calm,Calm,-,N/A,,Clear,0,2013-07-29 10:53:00
6:53 AM,72.0,64.9,78,30.08,10.0,Calm,Calm,-,N/A,,Clear,0,2013-07-29 11:53:00
7:53 AM,75.0,66.0,73,30.10,10.0,NE,3.5,-,N/A,,Clear,50,2013-07-29 12:53:00
8:53 AM,78.1,66.0,66,30.13,10.0,Calm,Calm,-,N/A,,Clear,0,2013-07-29 13:53:00
9:53 AM,81.0,66.9,62,30.13,10.0,Calm,Calm,-,N/A,,Clear,0,2013-07-29 14:53:00
10:53 AM,82.0,68.0,62,30.14,10.0,Variable,3.5,-,N/A,,Clear,0,2013-07-29 15:53:00
11:53 AM,82.9,69.1,63,30.13,10.0,Calm,Calm,-,N/A,,Clear,0,2013-07-29 16:53:00
12:53 PM,86.0,64.0,48,30.12,10.0,Calm,Calm,-,N/A,,Clear,0,2013-07-29 17:53:00
1:53 PM,88.0,64.9,46,30.11,10.0,Calm,Calm,-,N/A,,Clear,0,2013-07-29 18:53:00
2:53 PM,88.0,64.0,45,30.10,10.0,Variable,3.5,-,N/A,,Clear,0,2013-07-29 19:53:00
3:53 PM,87.1,64.9,48,30.10,10.0,Variable,3.5,-,N/A,,Clear,0,2013-07-29 20:53:00
4:53 PM,89.1,64.0,43,30.10,10.0,Variable,3.5,-,N/A,,Clear,0,2013-07-29 21:53:00
5:53 PM,87.1,64.9,48,30.10,10.0,NE,4.6,-,N/A,,Clear,50,2013-07-29 22:53:00
6:53 PM,84.0,68.0,58,30.12,10.0,Calm,Calm,-,N/A,,Clear,0,2013-07-29 23:53:00
7:53 PM,79.0,70.0,74,30.12,10.0,Calm,Calm,-,N/A,,Clear,0,2013-07-30 00:53:00
8:53 PM,75.9,70.0,82,30.13,10.0,Calm,Calm,-,N/A,,Clear,0,2013-07-30 01:53:00
9:53 PM,75.0,70.0,84,30.15,10.0,Calm,Calm,-,N/A,,Clear,0,2013-07-30 02:53:00
10:53 PM,75.0,66.9,76,30.14,10.0,Calm,Calm,-,N/A,,Clear,0,2013-07-30 03:53:00
11:53 PM,73.0,66.9,81,30.15,10.0,Calm,Calm,-,N/A,,Clear,0,2013-07-30 04:53:00